This is the latest recevied weather packets stored in our database for station/object YB2VNE-13. If no packets are shown the sender has not sent any weather packets the latest 1 day(s).
| Time | Temp. | Humidity | Pressure | Rain* | Wind** | Luminosity | Snow |
|---|---|---|---|---|---|---|---|
| 1836274524 | 28.89° C | 65% | 996 hPa | - | 0 m/s | 0 W/m² | - |
| 1836274508 | 29.44° C | 64% | 997 hPa | - | 0 m/s | 0 W/m² | - |
| 1836274434 | 29.44° C | 65% | 997 hPa | - | 0 m/s | 0 W/m² | - |
| 1836274361 | 28.89° C | 66% | 996 hPa | - | 0 m/s | 0 W/m² | - |
| 1836274282 | 29.44° C | 66% | 996 hPa | - | 0 m/s | 0 W/m² | - |
| 1836274216 | 28.89° C | 67% | 997 hPa | - | 0 m/s | 0 W/m² | - |
| 1836274175 | 29.44° C | 64% | 996 hPa | - | 0 m/s | 0 W/m² | - |
| 1836274025 | 28.33° C | 67% | 997 hPa | - | 0 m/s | 0 W/m² | - |
| 1836273878 | 28.33° C | 68% | 997 hPa | - | 0 m/s | 0 W/m² | - |
| 1778067399 | 30° C | 78% | 993 hPa | - | 0 m/s | 0 W/m² | - |
| 1778067089 | 30° C | 78% | 993 hPa | - | 0 m/s | 0 W/m² | - |
| 1778066779 | 29.44° C | 79% | 993 hPa | - | 0 m/s | 0 W/m² | - |
| 1778066469 | 29.44° C | 79% | 993 hPa | - | 0 m/s | 0 W/m² | - |
| 1778066159 | 29.44° C | 79% | 993 hPa | - | 0 m/s | 0 W/m² | - |
| 1778065849 | 29.44° C | 78% | 993 hPa | - | 0 m/s | 0 W/m² | - |
| 1778065539 | 29.44° C | 78% | 993 hPa | - | 0 m/s | 0 W/m² | - |
| 1778065229 | 29.44° C | 78% | 993 hPa | - | 0 m/s | 0 W/m² | - |
| 1778064919 | 29.44° C | 78% | 993 hPa | - | 0 m/s | 0 W/m² | - |
| 1778064609 | 29.44° C | 78% | 993 hPa | - | 0 m/s | 0 W/m² | - |
| 1778064299 | 30° C | 78% | 993 hPa | - | 0 m/s | 0 W/m² | - |
| 1778063989 | 30° C | 78% | 993 hPa | - | 0 m/s | 0 W/m² | - |
| 1778063679 | 30° C | 77% | 993 hPa | - | 0 m/s | 0 W/m² | - |
| 1778063369 | 30° C | 76% | 992 hPa | - | 0 m/s | 0 W/m² | - |
| 1778063059 | 30° C | 76% | 992 hPa | - | 0 m/s | 0 W/m² | - |
| 1778062749 | 30° C | 76% | 992 hPa | - | 0 m/s | 0 W/m² | - |
* Rain since midnight (hover to see other rain measurements)
** Current wind speed in m/s (hover to see current wind gust speed)